Tucson Davis Monthan, AZ

11:04 AM MST on December 11, 2017 (GMT -0700)
Davis-Monthan Air Force Base

Weather History for KDMA - May, 2013

Change the Weather History Date:

Wednesday, May 8, 2013

  Actual Average Record
Temperature  
Mean Temperature 68 °F -  
Max Temperature 80 °F 88 °F 106 °F (1989)
Min Temperature 55 °F 56 °F 40 °F (1965)
Cooling Degree Days 2    
Growing Degree Days 18 (Base 50)    
Moisture  
Dew Point 37 °F    
Average Humidity 34    
Maximum Humidity 53    
Minimum Humidity 17    
Precipitation  
Precipitation 0.00 in - - ()
Sea Level Pressure  
Sea Level Pressure 29.93 in    
Wind  
Wind Speed 6 mph (WNW)    
Max Wind Speed 16 mph    
Max Gust Speed 20 mph    
Visibility 10 miles    
Events      
Averages and records for this station are not official NWS values.
T = Trace of Precipitation, MM = Missing Value Source: NWS Daily Summary

Daily Weather History Graph

Daily Weather History Graph

Search for Another Location

Airport or City:

Trip Planner

Search our weather history database for the weather conditions in past years. The results will help you decide how hot, cold, wet, or windy it might be!

Date:

Astronomy

May. 08, 2013 Rise Set
Actual Time 5:30 AM MST 7:09 PM MST
Civil Twilight 5:04 AM MST 7:36 PM MST
Nautical Twilight 4:32 AM MST 8:08 PM MST
Astronomical Twilight 3:59 AM MST 8:41 PM MST
Moon 4:36 AM MST (5/8) 6:13 PM MST (5/8)
Length of Visible Light 14h 31m
Length of Day
13h 38m
Waning Crescent, 1% of the Moon is Illuminated
May 8
Waning Crescent
May 9
New
May 17
First Quarter
May 24
Full
May 31
Last Quarter

Hourly Weather History & Observations

Time (MST) Temp. Dew Point Humidity Pressure Visibility Wind Dir Wind Speed Gust Speed Precip Events Conditions
12:58 AM 60.4 °F 36.7 °F 41% 29.93 in 10.0 mi West 5.8 mph - N/A   Clear
1:58 AM 59.2 °F 37.2 °F 44% 29.93 in 10.0 mi SW 3.5 mph - N/A   Clear
2:58 AM 56.7 °F 38.7 °F 51% 29.94 in 10.0 mi Calm Calm - N/A   Clear
3:58 AM 56.1 °F 38.8 °F 52% 29.94 in 10.0 mi SSE 6.9 mph - N/A   Clear
4:58 AM 55.6 °F 38.7 °F 53% 29.95 in 10.0 mi SE 6.9 mph - N/A   Scattered Clouds
5:58 AM 55.4 °F 38.7 °F 53% 29.96 in 10.0 mi SE 5.8 mph - N/A   Clear
6:58 AM 59.7 °F 39.7 °F 48% 29.96 in 10.0 mi SE 6.9 mph - N/A   Clear
7:58 AM 63.5 °F 40.1 °F 42% 29.98 in 10.0 mi SE 5.8 mph - N/A   Clear
8:58 AM 66.0 °F 41.9 °F 41% 30.07 in 10.0 mi ENE 5.8 mph - N/A   Clear
9:31 AM 66.2 °F 41.0 °F 40% 29.97 in 10.0 mi Variable 2.3 mph - N/A   Scattered Clouds
9:58 AM 68.5 °F 40.3 °F 36% 29.98 in 10.0 mi North 3.5 mph - N/A   Scattered Clouds
10:58 AM 70.2 °F 35.6 °F 28% 29.97 in 10.0 mi Calm Calm - N/A   Mostly Cloudy
11:58 AM 72.5 °F 33.3 °F 24% 29.94 in 10.0 mi Variable 4.6 mph - N/A   Scattered Clouds
12:58 PM 74.7 °F 32.7 °F 22% 29.93 in 10.0 mi SW 8.1 mph - N/A   Mostly Cloudy
1:58 PM 75.7 °F 34.2 °F 22% 29.91 in 10.0 mi West 9.2 mph 19.6 mph N/A   Clear
2:58 PM 77.9 °F 31.3 °F 18% 29.89 in 10.0 mi NW 8.1 mph - N/A   Partly Cloudy
3:50 PM 80.6 °F 32.0 °F 17% 29.96 in 10.0 mi West 11.5 mph - N/A   Clear
3:58 PM 79.2 °F 32.9 °F 19% 29.87 in 10.0 mi NW 12.7 mph - N/A   Clear
4:58 PM 79.7 °F 35.4 °F 20% 29.86 in 10.0 mi North 16.1 mph - N/A   Clear
5:58 PM 77.0 °F 36.0 °F 23% 29.86 in 10.0 mi North 11.5 mph - N/A   Clear
6:58 PM 74.8 °F 35.2 °F 24% 29.86 in 10.0 mi North 11.5 mph - N/A   Partly Cloudy
7:58 PM 73.8 °F 35.2 °F 25% 29.87 in 10.0 mi North 9.2 mph - N/A   Mostly Cloudy
8:58 PM 71.6 °F 35.4 °F 27% 29.89 in 10.0 mi WNW 2.3 mph - N/A   Clear
9:58 PM 70.2 °F 37.8 °F 31% 29.91 in 10.0 mi West 9.2 mph - N/A   Clear
10:58 PM 68.4 °F 40.1 °F 36% 29.93 in 10.0 mi West 10.4 mph - N/A   Partly Cloudy
11:58 PM 66.7 °F 39.4 °F 37% 29.93 in 10.0 mi SW 4.6 mph - N/A   Partly Cloudy